SL-16 DEB, 22366

Orbit data source: Space-Track

SL-16 DEB, 22366 is space debris in LEO originally from a launch on Fri, 25 Dec 1992 UTC launched from the Tyuratam Missile And Space Complex (TTMTR). Debris objects in space refer to the collection of defunct objects orbiting the Earth. Examples of debris include non-operational satellites, rocket bodies, and fragments generated from explosions, collisions, or faulty payload assembly.

Loading next visibility...
Identifier
22366, 1992-093BF
Orbit
LEO
Country
Flag of CISCIS
Related business
Manufacturer
Unknown
Mission
Spacecraft
Bus & Motor
Unknown
Mass
Unknown
Launch date (UTC)
1992-12-25 (33 years ago)
Launch vehicle
Unknown
Launch site
Tyuratam Missile And Space Complex (TTMTR)
Object type
Payload
Rocket body
Debris
Shape & HBR
Unknown shape, 0.3 m
Radar Cross Section
Medium (>0.1 m² and <1 m²)

Expand to show TLE details & history
Last TLE update: 1 day ago

TLE from 1 day ago
0 SL-16 DEB
1 22366U 92093BF  25349.64053878  .00013748  00000-0  23000-2 0  9996
2 22366  71.1061  73.5106 0067690 268.0918 241.0177 14.68398699697132
Epoch: 2025-12-15T15:22Z
TLE epoch observation values (Epoch: 2025-12-15T15:22:22.550Z)
Latitude
29.74893°
Longitude
-72.83835°
Altitude
692.784 km
Speed
7.5 km/s
True Right ascension
16h 09m 10s
True Declination
29° 35' 59"
Sunlit
Object was in daylight at epoch
Visualization orbit readout
Latitude
Unknown
Longitude
Unknown
Altitude
Unknown
Speed
Unknown
Apparent Right ascension
Unknown
Apparent Declination
Unknown
Sunlit
N/A
Visualization observer readout
Local Sidereal Time
18:30:47
Azimuth
Unknown
Elevation
Unknown
Doppler factor
Unknown
Orbital elements
Apogee altitude
711.715 km
Perigee altitude
616.378 km
Semi-major axis
7,042.184 km
Eccentricity
0.00677
Inclination
71.1061°
RAAN
73.5106°
Arg. of periapsis
268.0918°
True anomaly
240.34195°
Mean anomaly
241.0177°
Eccentric anomaly
240.67955°
Mean motion
3.67267 °/min
Orbital period
98.02 mins
BSTAR
0.0023
Loading maneuver chart data...
Computing Atmospheric mass density...
Loading historical data...
Loading historical data...
Loading historical data...
Loading historical data...
Loading historical data...
Loading historical data...
Loading historical data...

Documentation

Showing up to 5 results
|